Location: Yellowknife
(62.4500°N, 114.3500°W)
Time: 13:42:53
(UTC-06:00)

Amateur Radio Satellites - All Passes

Search period start: 30 June 2015 13:12
Search period end: 01 July 2015 13:12
Location: Yellowknife, 62.4500°N, 114.3500°W

Satellite Date Start Highest point End Downlink Frequencies (MHz)
Time Altitude Azimuth
DELFI C3 30 Jun 13:14:52 13:18:30 31° 303° (WNW) 13:22:05 145.870
AO-7 30 Jun 13:18:05 13:25:25 36° 28° (NNE) 13:32:49 29.400- 29.500
CINEMA 3 30 Jun 13:19:13 13:22:13 19° 314° (NW) 13:25:08 145.822/145.860
Cubesat XI-IV 30 Jun 13:19:14 13:20:43 11° 354° (N) 13:22:11 437.490
DANDE 30 Jun 13:23:05 13:26:48 16° 322° (NW) 13:29:54 436.750
ZACube-1 30 Jun 13:23:55 13:27:39 32° 304° (WNW) 13:31:22 437.345
Gurwin Techsat 1B 30 Jun 13:24:25 13:29:17 38° 53° (NE) 13:34:13 435.225
O/OREOS (USA 219) 30 Jun 13:28:26 13:32:16 27° 347° (NNW) 13:36:08 437.305
AISAT 30 Jun 13:29:20 13:33:49 81° 291° (WNW) 13:38:14 437.250
QB50P1 30 Jun 13:37:33 13:39:19 12° 281° (W) 13:40:56 145.935-145.965
DOVE 4 30 Jun 13:37:43 13:39:28 12° 326° (NW) 13:41:08 437.250
UKube-1 30 Jun 13:39:15 13:43:30 52° 298° (WNW) 13:47:43 .
SEEDS 30 Jun 13:41:05 13:42:58 13° 323° (NW) 13:44:47 437.485
AIST 2 30 Jun 13:43:21 13:47:40 77° 341° (NNW) 13:51:57 435.215
Oscar 11 30 Jun 13:43:26 13:46:41 21° 313° (NW) 13:49:54 145.826/435.025
ESTCUBE 1 30 Jun 13:44:33 13:49:10 85° 290° (WNW) 13:53:44 437.505/2401.250
SPROUT 30 Jun 13:45:38 13:49:45 41° 98° (E) 13:53:49 437.525
50 SAT 30 Jun 13:48:06 13:51:51 48° 296° (WNW) 13:55:36 437.505
JAS-2 30 Jun 13:55:15 13:59:37 28° 43° (NE) 14:04:20 435.910
Oscar 19 30 Jun 13:55:38 14:00:47 75° 253° (WSW) 14:05:58 437.125/150
ITAMSAT 1 30 Jun 13:56:58 14:02:04 55° 60° (ENE) 14:07:13 435.822/435.867
CUBEBUG 1 30 Jun 14:01:59 14:06:25 71° 292° (WNW) 14:10:46 437.445
FUNcube-1 30 Jun 14:02:33 14:05:39 20° 312° (NW) 14:08:42 145.935
UWE-3 30 Jun 14:02:45 14:05:36 18° 314° (NW) 14:08:25 435.000/436.395/437.385
Cosmos 2504 30 Jun 14:03:13 14:07:52 18° 16° (NNE) 14:12:44 435.465 / 435.565
AAUSAT CUBESAT 2 30 Jun 14:04:08 14:05:35 12° 324° (NW) 14:06:58 437.432
HORYU 2 30 Jun 14:04:16 14:07:24 20° 44° (NE) 14:10:36 437.375
ISS 30 Jun 14:07:48 14:09:22 13° 181° (S) 14:10:57 145.825
VELOX 1 30 Jun 14:20:25 14:24:35 40° 302° (WNW) 14:28:44 145.980
HUMSAT D 30 Jun 14:20:49 14:24:07 23° 309° (NW) 14:27:24 437.325/437.525
CUTE-I 30 Jun 14:24:51 14:26:36 12° 11° (N) 14:28:22 437.470
BEESAT 3 30 Jun 14:28:09 14:32:15 63° 8° (N) 14:36:20 437.485
Cosmos 2499 30 Jun 14:32:53 14:39:33 42° 306° (NW) 14:46:24 435.465 / 435.565
BEESAT 2 30 Jun 14:33:48 14:37:56 63° 7° (N) 14:42:03 435.950
YUBILEINY 30 Jun 14:34:29 14:43:05 57° 61° (ENE) 14:51:43 435.215
CUBEBUG 2 30 Jun 14:39:25 14:40:47 11° 325° (NW) 14:42:04 437.445
BEESAT 30 Jun 14:39:41 14:43:39 25° 89° (E) 14:47:40 436.000
TISAT 1 30 Jun 14:45:36 14:49:52 84° 108° (ESE) 14:54:04 437.305
HO-68 30 Jun 14:46:21 14:51:45 24° 341° (NNW) 14:57:06 435.675
DX 1 30 Jun 14:47:50 14:51:12 22° 314° (NW) 14:54:30 434.975-435.025
RS-15 30 Jun 14:48:11 14:56:55 25° 257° (WSW) 15:05:34 29.354- 29.394
DELFI C3 30 Jun 14:51:37 14:52:32 11° 325° (NW) 14:53:22 145.870
SWISSCUBE 30 Jun 14:54:26 14:58:47 33° 94° (E) 15:03:09 437.505
Cubesat XI-IV 30 Jun 14:56:23 14:58:47 13° 19° (NNE) 15:01:15 437.490
ITUPSAT 1 30 Jun 14:57:29 15:01:50 32° 93° (E) 15:06:10 437.325
ZACube-1 30 Jun 15:01:46 15:02:58 11° 325° (NW) 15:04:05 437.345
Gurwin Techsat 1B 30 Jun 15:03:48 15:09:06 67° 255° (WSW) 15:14:27 435.225
AISAT 30 Jun 15:06:22 15:09:53 23° 312° (NW) 15:13:20 437.250
AO-7 30 Jun 15:08:58 15:17:13 68° 54° (NE) 15:25:33 29.400- 29.500
O/OREOS (USA 219) 30 Jun 15:09:05 15:12:55 27° 12° (NNE) 15:16:47 437.305
GONETS M04 30 Jun 15:09:40 15:16:24 23° 341° (NNW) 15:23:02
Cosmos 2491 30 Jun 15:09:42 15:16:42 28° 74° (ENE) 15:23:52 435.465 / 435.565
UKube-1 30 Jun 15:16:03 15:18:52 17° 319° (NW) 15:21:35 .
SPROUT 30 Jun 15:21:47 15:25:53 44° 300° (WNW) 15:29:58 437.525
ESTCUBE 1 30 Jun 15:21:51 15:25:33 24° 312° (NW) 15:29:11 437.505/2401.250
AIST 2 30 Jun 15:22:17 15:26:33 63° 5° (N) 15:30:46 435.215
50 SAT 30 Jun 15:23:41 15:25:44 14° 317° (NW) 15:27:44 437.505
KKS-1 30 Jun 15:30:29 15:33:23 17° 84° (E) 15:36:22 437.445
ITAMSAT 1 30 Jun 15:36:47 15:41:47 43° 262° (W) 15:46:48 435.822/435.867
Oscar 19 30 Jun 15:37:14 15:41:04 20° 276° (W) 15:44:48 437.125/150
CUBEBUG 1 30 Jun 15:38:52 15:42:11 21° 314° (NW) 15:45:25 437.445
JAS-2 30 Jun 15:38:58 15:44:10 83° 70° (ENE) 15:49:48 435.910
HORYU 2 30 Jun 15:39:01 15:43:23 64° 65° (ENE) 15:47:49 437.375
AIST 1 30 Jun 15:56:21 15:59:00 16° 80° (E) 16:01:47
Cosmos 2504 30 Jun 15:57:35 16:04:03 33° 46° (NE) 16:10:55 435.465 / 435.565
VELOX 1 30 Jun 15:57:48 16:00:11 14° 324° (NW) 16:02:30 145.980
CUTE-I 30 Jun 16:01:10 16:04:55 20° 35° (NE) 16:08:44 437.470
BEESAT 3 30 Jun 16:06:14 16:10:21 73° 211° (SSW) 16:14:25 437.485
BEESAT 2 30 Jun 16:12:00 16:16:10 76° 210° (SSW) 16:20:16 435.950
BEESAT 30 Jun 16:17:15 16:22:05 82° 293° (WNW) 16:26:55 436.000
TISAT 1 30 Jun 16:21:47 16:25:15 25° 309° (NW) 16:28:40 437.305
Cosmos 2499 30 Jun 16:29:59 16:35:05 20° 336° (NNW) 16:40:15 435.465 / 435.565
YUBILEINY 30 Jun 16:31:39 16:40:12 60° 267° (W) 16:48:43 435.215
SWISSCUBE 30 Jun 16:32:12 16:37:00 64° 296° (WNW) 16:41:46 437.505
HO-68 30 Jun 16:32:24 16:37:25 21° 7° (N) 16:42:26 435.675
Cubesat XI-IV 30 Jun 16:33:00 16:37:21 26° 43° (NE) 16:41:45 437.490
STARS 30 Jun 16:33:18 16:37:14 32° 94° (E) 16:41:12 437.465
ITUPSAT 1 30 Jun 16:35:17 16:40:06 66° 295° (WNW) 16:44:53 437.325
Gurwin Techsat 1B 30 Jun 16:46:27 16:50:10 18° 278° (W) 16:53:47 435.225
O/OREOS (USA 219) 30 Jun 16:48:51 16:53:15 50° 37° (NE) 16:57:40 437.305
MOZHAYETS 4 30 Jun 16:52:01 16:54:48 16° 81° (E) 16:57:42
SPROUT 30 Jun 16:58:43 17:01:06 14° 321° (NW) 17:03:24 437.525
ESTCUBE 1 30 Jun 17:00:27 17:01:04 10° 334° (NNW) 17:01:37 437.505/2401.250
AIST 2 30 Jun 17:01:01 17:05:19 81° 209° (SSW) 17:09:33 435.215
AO-7 30 Jun 17:02:18 17:10:27 53° 259° (WSW) 17:18:38 29.400- 29.500
Cosmos 2491 30 Jun 17:03:35 17:12:23 75° 99° (E) 17:21:11 435.465 / 435.565
KKS-1 30 Jun 17:06:22 17:10:51 74° 106° (ESE) 17:15:17 437.445
GONETS M04 30 Jun 17:10:41 17:17:06 22° 13° (NNE) 17:23:33
HORYU 2 30 Jun 17:16:29 17:20:23 29° 267° (W) 17:24:17 437.375
ITAMSAT 1 30 Jun 17:21:02 17:22:49 11° 286° (WNW) 17:24:24 435.822/435.867
GOMX 1 30 Jun 17:21:18 17:22:20 11° 28° (NNE) 17:23:26 467.674
BRITE-PL 30 Jun 17:21:25 17:24:03 14° 34° (NE) 17:26:40 437.365/2234.400
JAS-2 30 Jun 17:25:45 17:30:09 26° 273° (W) 17:34:44 435.910
AIST 1 30 Jun 17:31:34 17:35:58 72° 103° (ESE) 17:40:25
CUTE-I 30 Jun 17:38:53 17:44:02 50° 58° (ENE) 17:49:15 437.470
BEESAT 3 30 Jun 17:44:30 17:47:50 24° 232° (SW) 17:51:06 437.485
BEESAT 2 30 Jun 17:50:20 17:53:47 25° 231° (SW) 17:57:10 435.950
Cosmos 2504 30 Jun 17:51:13 17:58:38 81° 72° (ENE) 18:06:33 435.465 / 435.565
BEESAT 30 Jun 17:55:30 17:59:26 25° 313° (NW) 18:03:20 436.000
CUSAT 1 30 Jun 18:06:49 18:09:00 15° 41° (NE) 18:10:59 437.405
PCSat 30 Jun 18:08:37 18:13:23 33° 122° (ESE) 18:18:13 145.827
STARS 30 Jun 18:09:39 18:13:58 58° 296° (WNW) 18:18:17 437.465
SWISSCUBE 30 Jun 18:10:33 18:14:10 21° 317° (NW) 18:17:44 437.505
Cubesat XI-IV 30 Jun 18:11:27 18:16:50 73° 65° (ENE) 18:22:15 437.490
ITUPSAT 1 30 Jun 18:13:39 18:17:19 22° 317° (NW) 18:20:56 437.325
HO-68 30 Jun 18:17:17 18:23:19 31° 34° (NNE) 18:29:24 435.675
SEEDS 30 Jun 18:23:40 18:24:45 11° 34° (NE) 18:25:56 437.485
SO-50 30 Jun 18:23:50 18:25:37 12° 113° (ESE) 18:27:34 436.795
DOVE 4 30 Jun 18:24:40 18:27:10 15° 39° (NE) 18:29:40 437.250
Cosmos 2499 30 Jun 18:27:16 18:31:39 16° 7° (N) 18:36:12 435.465 / 435.565
MOZHAYETS 4 30 Jun 18:28:21 18:33:00 65° 104° (ESE) 18:37:38
O/OREOS (USA 219) 30 Jun 18:28:23 18:32:46 51° 239° (WSW) 18:37:09 437.305
YUBILEINY 30 Jun 18:29:07 18:35:24 22° 293° (WNW) 18:41:29 435.215
DANDE 30 Jun 18:39:43 18:43:00 22° 45° (NE) 18:45:43 436.750
AIST 2 30 Jun 18:39:48 18:43:30 29° 230° (SW) 18:47:08 435.215
CUBESAT XI-V 30 Jun 18:43:12 18:46:25 18° 83° (E) 18:49:43 437.345
KKS-1 30 Jun 18:43:20 18:47:12 29° 308° (NW) 18:51:01 437.445
AAUSAT CUBESAT 2 30 Jun 18:45:26 18:46:49 12° 36° (NE) 18:48:16 437.432
GOMX 1 30 Jun 18:55:07 18:59:11 26° 51° (NE) 19:03:04 467.674
BRITE-PL 30 Jun 18:56:39 19:01:28 35° 56° (NE) 19:06:01 437.365/2234.400
AO-7 30 Jun 18:59:57 19:05:35 19° 285° (WNW) 19:10:58 29.400- 29.500
Cosmos 2491 30 Jun 19:01:31 19:10:00 47° 306° (NW) 19:18:27 435.465 / 435.565
CUTE 1.7 + AOD 2 30 Jun 19:01:41 19:04:31 18° 45° (NE) 19:07:26 437.475
CANX-2 30 Jun 19:04:09 19:07:08 19° 47° (NE) 19:10:12 2200.000
COMPASS 1 30 Jun 19:06:19 19:08:45 15° 42° (NE) 19:11:16 437.405
GONETS M04 30 Jun 19:09:13 19:17:09 36° 44° (NE) 19:25:05
AIST 1 30 Jun 19:10:15 19:14:05 28° 304° (NW) 19:17:55
PRISM 30 Jun 19:14:24 19:15:50 12° 79° (E) 19:17:23 437.425
CUTE-I 30 Jun 19:18:59 19:24:13 50° 260° (W) 19:29:29 437.470
CUBEBUG 2 30 Jun 19:23:35 19:25:19 12° 37° (NE) 19:27:06 437.445
STRAND 1 30 Jun 19:31:06 19:34:46 19° 83° (E) 19:38:32 437.568
DELFI C3 30 Jun 19:31:09 19:32:15 11° 36° (NE) 19:33:26 145.870
BEESAT 30 Jun 19:34:23 19:35:54 11° 336° (NNW) 19:37:21 436.000
CINEMA 3 30 Jun 19:40:58 19:44:17 21° 49° (NE) 19:47:34 145.822/145.860
ZACube-1 30 Jun 19:44:46 19:46:30 13° 38° (NE) 19:48:19 437.345
Cosmos 2504 30 Jun 19:44:57 19:51:34 36° 276° (W) 19:58:28 435.465 / 435.565
STARS 30 Jun 19:46:43 19:49:43 18° 318° (NW) 19:52:40 437.465
CUSAT 1 30 Jun 19:48:56 19:52:26 86° 64° (ENE) 19:55:17 437.405
SWISSCUBE 30 Jun 19:49:57 19:50:30 10° 341° (NNW) 19:51:00 437.505
PCSat 30 Jun 19:50:55 19:56:23 86° 145° (SE) 20:01:52 145.827
Cubesat XI-IV 30 Jun 19:52:35 19:57:26 32° 268° (W) 20:02:16 437.490
ITUPSAT 1 30 Jun 19:52:56 19:53:42 10° 340° (NNW) 19:54:24 437.325
SEEDS 30 Jun 19:55:46 19:59:27 31° 56° (NE) 20:03:12 437.485
DOVE 4 30 Jun 19:59:34 20:04:03 42° 60° (ENE) 20:08:19 437.250
SO-50 30 Jun 20:00:33 20:05:03 39° 134° (SE) 20:09:40 436.795
UKube-1 30 Jun 20:00:34 20:01:55 11° 31° (NNE) 20:03:21 .
Oscar 11 30 Jun 20:01:30 20:04:37 20° 47° (NE) 20:07:48 145.826/435.025
HO-68 30 Jun 20:03:05 20:10:10 67° 58° (ENE) 20:17:16 435.675
MOZHAYETS 4 30 Jun 20:05:50 20:10:02 34° 305° (NW) 20:14:11
O/OREOS (USA 219) 30 Jun 20:09:15 20:11:18 13° 260° (W) 20:13:12 437.305
AAUSAT CUBESAT 2 30 Jun 20:17:39 20:21:23 33° 57° (ENE) 20:25:11 437.432
CUBESAT XI-V 30 Jun 20:19:58 20:24:44 74° 105° (ESE) 20:29:27 437.345
KKS-1 30 Jun 20:21:11 20:22:39 11° 330° (NNW) 20:24:03 437.445
FUNcube-1 30 Jun 20:21:22 20:24:12 18° 46° (NE) 20:27:06 145.935
UWE-3 30 Jun 20:21:50 20:25:00 21° 49° (NE) 20:28:10 435.000/436.395/437.385
Cosmos 2499 30 Jun 20:21:54 20:27:54 26° 38° (NE) 20:34:18 435.465 / 435.565
DANDE 30 Jun 20:22:48 20:26:47 66° 257° (WSW) 20:29:51 436.750
GOMX 1 30 Jun 20:31:47 20:36:54 87° 73° (ENE) 20:41:41 467.674
BRITE-PL 30 Jun 20:34:21 20:39:48 70° 257° (WSW) 20:44:52 437.365/2234.400
CUTE 1.7 + AOD 2 30 Jun 20:35:36 20:39:47 62° 66° (ENE) 20:44:00 437.475
HUMSAT D 30 Jun 20:38:01 20:40:22 15° 42° (NE) 20:42:47 437.325/437.525
CANX-2 30 Jun 20:38:16 20:42:28 70° 68° (ENE) 20:46:43 2200.000
COMPASS 1 30 Jun 20:39:37 20:43:39 51° 64° (ENE) 20:47:45 437.405
VELOX 1 30 Jun 20:42:07 20:44:23 14° 36° (NE) 20:46:44 145.980
PRISM 30 Jun 20:48:10 20:52:19 51° 102° (ESE) 20:56:27 437.425
CUBEBUG 2 30 Jun 20:57:09 21:01:05 37° 59° (ENE) 21:04:58 437.445
Cosmos 2491 30 Jun 21:02:32 21:09:33 25° 336° (NNW) 21:16:28 435.465 / 435.565
DELFI C3 30 Jun 21:02:43 21:06:19 33° 57° (ENE) 21:09:59 145.870
CUTE-I 30 Jun 21:02:56 21:05:43 14° 284° (WNW) 21:08:19 437.470
DX 1 30 Jun 21:06:13 21:09:38 23° 47° (NE) 21:13:06 434.975-435.025
GONETS M04 30 Jun 21:06:36 21:15:25 82° 72° (ENE) 21:24:09
STRAND 1 30 Jun 21:09:44 21:14:56 72° 106° (ESE) 21:20:07 437.568
CINEMA 3 30 Jun 21:16:32 21:21:01 79° 68° (ENE) 21:25:20 145.822/145.860
ZACube-1 30 Jun 21:18:03 21:21:56 38° 59° (ENE) 21:25:49 437.345
AISAT 30 Jun 21:26:09 21:29:33 22° 47° (NE) 21:33:01 437.250
SEEDS 30 Jun 21:30:54 21:35:03 61° 257° (WSW) 21:39:15 437.485
CUSAT 1 30 Jun 21:33:05 21:34:13 11° 279° (W) 21:35:12 437.405
UKube-1 30 Jun 21:33:08 21:36:54 29° 53° (NE) 21:40:43 .
50 SAT 30 Jun 21:34:46 21:37:35 20° 50° (NE) 21:40:28 437.505
PCSat 30 Jun 21:34:49 21:40:11 56° 349° (N) 21:45:34 145.827
Oscar 11 30 Jun 21:35:55 21:40:12 70° 68° (ENE) 21:44:32 145.826/435.025
DOVE 4 30 Jun 21:37:10 21:41:51 48° 261° (W) 21:46:16 437.250
AUBIESAT-1 30 Jun 21:39:15 21:41:45 16° 95° (E) 21:44:25 437.475
SO-50 30 Jun 21:40:24 21:45:20 89° 157° (SSE) 21:50:21 436.795
Cosmos 2504 30 Jun 21:40:35 21:42:54 11° 301° (WNW) 21:44:54 435.465 / 435.565
SPROUT 30 Jun 21:42:39 21:43:50 11° 32° (NNE) 21:45:06 437.525
ESTCUBE 1 30 Jun 21:42:52 21:46:18 22° 46° (NE) 21:49:47 437.505/2401.250
MOZHAYETS 4 30 Jun 21:44:01 21:46:08 13° 327° (NNW) 21:48:10
HO-68 30 Jun 21:51:25 21:58:18 47° 262° (W) 22:05:11 435.675
AAUSAT CUBESAT 2 30 Jun 21:52:47 21:56:52 54° 259° (WSW) 22:00:59 437.432
FUNcube-1 30 Jun 21:55:47 21:59:57 66° 67° (ENE) 22:04:05 145.935
UWE-3 30 Jun 21:56:48 22:01:04 81° 68° (ENE) 22:05:15 435.000/436.395/437.385
CUBEBUG 1 30 Jun 21:57:27 22:00:53 23° 48° (NE) 22:04:22 437.445
CUBESAT XI-V 30 Jun 21:57:43 22:01:53 31° 307° (NW) 22:05:59 437.345
M-CUBED/EXP-1 PRIME 30 Jun 22:08:56 22:12:19 28° 103° (ESE) 22:15:57 437.505
HUMSAT D 30 Jun 22:11:22 22:15:21 51° 64° (ENE) 22:19:22 437.325/437.525
GOMX 1 30 Jun 22:11:28 22:15:37 24° 272° (W) 22:19:30 467.674
CUTE 1.7 + AOD 2 30 Jun 22:12:21 22:16:02 28° 268° (W) 22:19:43 437.475
CANX-2 30 Jun 22:15:16 22:18:49 25° 270° (W) 22:22:22 2200.000
BRITE-PL 30 Jun 22:15:19 22:19:11 19° 277° (W) 22:22:47 437.365/2234.400
Cosmos 2499 30 Jun 22:15:23 22:22:44 61° 65° (ENE) 22:30:39 435.465 / 435.565
COMPASS 1 30 Jun 22:15:41 22:19:30 34° 265° (W) 22:23:21 437.405
VELOX 1 30 Jun 22:15:49 22:19:58 39° 57° (ENE) 22:24:08 145.980
PRISM 30 Jun 22:23:47 22:27:41 36° 303° (WNW) 22:31:33 437.425
CUBEBUG 2 30 Jun 22:33:35 22:37:45 48° 260° (W) 22:41:51 437.445
DELFI C3 30 Jun 22:37:20 22:41:17 53° 259° (WSW) 22:45:16 145.870
TISAT 1 30 Jun 22:39:03 22:41:41 16° 42° (NE) 22:44:23 437.305
DX 1 30 Jun 22:40:59 22:45:23 80° 69° (ENE) 22:49:49 434.975-435.025
ANTELSAT 30 Jun 22:41:01 22:42:13 11° 78° (ENE) 22:43:36 437.575/2403.000
BEESAT 30 Jun 22:46:04 22:47:41 12° 25° (NNE) 22:49:22 436.000
STRAND 1 30 Jun 22:49:14 22:53:54 35° 308° (NW) 22:58:32 437.568
ZACube-1 30 Jun 22:54:12 22:58:17 47° 260° (W) 23:02:20 437.345
TIGRISAT 30 Jun 22:54:38 22:56:44 14° 81° (E) 22:59:00 435.000
CINEMA 3 30 Jun 22:55:07 22:58:44 23° 271° (W) 23:02:12 145.822/145.860
SWISSCUBE 30 Jun 23:00:06 23:02:20 13° 30° (NNE) 23:04:39 437.505
AISAT 30 Jun 23:01:06 23:05:35 75° 68° (ENE) 23:10:05 437.250
ITUPSAT 1 30 Jun 23:03:23 23:05:36 13° 29° (NNE) 23:07:54 437.325
GONETS M04 30 Jun 23:03:48 23:11:41 39° 278° (W) 23:19:27
Cosmos 2491 30 Jun 23:03:52 23:10:14 21° 8° (N) 23:16:38 435.465 / 435.565
50 SAT 30 Jun 23:07:55 23:11:46 85° 71° (ENE) 23:15:39 437.505
UKube-1 30 Jun 23:08:25 23:12:46 71° 254° (WSW) 23:17:09 .
SEEDS 30 Jun 23:09:35 23:11:47 14° 280° (W) 23:13:53 437.485
Oscar 11 30 Jun 23:13:10 23:16:50 26° 270° (W) 23:20:27 145.826/435.025
AUBIESAT-1 30 Jun 23:13:14 23:17:06 74° 115° (ESE) 23:21:17 437.475
SPROUT 30 Jun 23:15:01 23:18:47 30° 54° (NE) 23:22:34 437.525
ESTCUBE 1 30 Jun 23:18:02 23:22:34 72° 67° (ENE) 23:27:09 437.505/2401.250
PCSat 30 Jun 23:18:54 23:24:18 58° 14° (NNE) 23:29:41 145.827
DOVE 4 30 Jun 23:18:54 23:20:45 12° 283° (WNW) 23:22:23 437.250
SO-50 30 Jun 23:21:12 23:26:09 69° 360° (N) 23:31:08 436.795
UNISAT 6 30 Jun 23:31:45 23:35:17 25° 90° (E) 23:38:55 437.425
AAUSAT CUBESAT 2 30 Jun 23:31:47 23:33:29 12° 281° (W) 23:35:04 437.432
CUBEBUG 1 30 Jun 23:32:17 23:36:44 80° 69° (ENE) 23:41:12 437.445
FUNcube-1 30 Jun 23:33:06 23:36:40 26° 269° (W) 23:40:11 145.935
QB50P1 30 Jun 23:33:12 23:35:29 14° 82° (E) 23:37:51 145.935-145.965
UWE-3 30 Jun 23:34:47 23:38:08 22° 272° (W) 23:41:23 435.000/436.395/437.385
CUBESAT XI-V 30 Jun 23:36:09 23:38:06 12° 329° (NNW) 23:39:57 437.345
M-CUBED/EXP-1 PRIME 30 Jun 23:43:38 23:47:24 63° 302° (WNW) 23:51:30 437.505
HO-68 30 Jun 23:44:01 23:48:07 15° 287° (WNW) 23:51:57 435.675
HUMSAT D 30 Jun 23:47:33 23:51:18 33° 265° (W) 23:55:02 437.325/437.525
NANOSAT C BR1 30 Jun 23:48:43 23:51:37 18° 86° (E) 23:54:34 145.865
VELOX 1 30 Jun 23:52:04 23:56:28 52° 259° (W) 00:00:52 145.980
POLYITAN 1 30 Jun 23:56:41 23:59:53 21° 88° (E) 00:03:07 437.675
DUCHIFAT 1 30 Jun 23:57:01 00:00:08 20° 87° (E) 00:03:19 145.980
PRISM 01 Jul 00:00:14 00:02:09 13° 325° (NW) 00:03:59 437.425
Cosmos 2499 01 Jul 00:08:46 00:15:54 50° 269° (W) 00:23:30 435.465 / 435.565
TISAT 1 01 Jul 00:12:34 00:16:44 54° 64° (ENE) 00:20:52 437.305
CUBEBUG 2 01 Jul 00:14:27 00:15:33 11° 282° (WNW) 00:16:29 437.445
ANTELSAT 01 Jul 00:15:56 00:20:08 49° 100° (E) 00:24:24 437.575/2403.000
DELFI C3 01 Jul 00:15:57 00:17:22 11° 281° (W) 00:18:39 145.870
DX 1 01 Jul 00:18:36 00:22:10 23° 270° (W) 00:25:42 434.975-435.025
BEESAT 01 Jul 00:20:14 00:24:11 26° 48° (NE) 00:28:11 436.000
QB50P2 01 Jul 00:26:47 00:30:38 33° 95° (E) 00:34:30 145.880/145.840
POPSAT HIP 1 01 Jul 00:28:35 00:32:27 33° 95° (E) 00:36:18 437.405
STRAND 1 01 Jul 00:28:59 00:31:54 15° 331° (NNW) 00:34:45 437.568
TIGRISAT 01 Jul 00:30:11 00:34:27 60° 103° (ESE) 00:38:47 435.000
BUGSAT 1 01 Jul 00:32:14 00:35:44 26° 92° (E) 00:39:14 437.445
STARS 01 Jul 00:32:41 00:33:42 11° 29° (NNE) 00:34:47 437.465
SWISSCUBE 01 Jul 00:34:46 00:39:00 32° 52° (NE) 00:43:17 437.505
ZACube-1 01 Jul 00:35:05 00:35:47 10° 283° (WNW) 00:36:17 437.345
ITUPSAT 1 01 Jul 00:38:04 00:42:17 32° 52° (NE) 00:46:35 437.325
AISAT 01 Jul 00:38:53 00:42:39 25° 269° (W) 00:46:23 437.250
50 SAT 01 Jul 00:44:09 00:46:57 19° 272° (W) 00:49:42 437.505
UKube-1 01 Jul 00:46:56 00:49:44 16° 276° (W) 00:52:26 .
AUBIESAT-1 01 Jul 00:48:21 00:51:39 28° 314° (NW) 00:55:08 437.475
SPROUT 01 Jul 00:50:18 00:54:37 68° 255° (WSW) 00:58:58 437.525
ESTCUBE 1 01 Jul 00:55:58 00:59:54 27° 269° (W) 01:03:48 437.505/2401.250
SO-50 01 Jul 01:01:58 01:06:58 89° 204° (SSW) 01:11:58 436.795
GONETS M04 01 Jul 01:02:02 01:06:04 14° 304° (NW) 01:09:46
PCSat 01 Jul 01:02:33 01:08:01 79° 219° (SW) 01:13:28 145.827
Cosmos 2491 01 Jul 01:02:45 01:10:31 33° 40° (NE) 01:18:17 435.465 / 435.565
KKS-1 01 Jul 01:04:13 01:07:10 18° 42° (NE) 01:10:11 437.445
QB50P1 01 Jul 01:08:00 01:12:14 64° 104° (ESE) 01:16:25 145.935-145.965
UNISAT 6 01 Jul 01:08:14 01:12:33 74° 292° (WNW) 01:16:54 437.425
CUBEBUG 1 01 Jul 01:09:58 01:13:37 24° 271° (W) 01:17:13 437.445
M-CUBED/EXP-1 PRIME 01 Jul 01:19:02 01:21:46 19° 322° (NW) 01:24:35 437.505
NANOSAT C BR1 01 Jul 01:23:53 01:28:09 83° 108° (ESE) 01:32:22 145.865
POLYITAN 1 01 Jul 01:32:06 01:36:22 86° 289° (WNW) 01:40:35 437.675
VELOX 1 01 Jul 01:32:11 01:34:07 12° 281° (W) 01:35:55 145.980
DUCHIFAT 1 01 Jul 01:32:18 01:36:33 88° 290° (WNW) 01:40:46 145.980
TISAT 1 01 Jul 01:48:50 01:52:43 33° 265° (W) 01:56:35 437.305
AIST 1 01 Jul 01:50:04 01:53:12 19° 47° (NE) 01:56:21
ANTELSAT 01 Jul 01:52:54 01:56:54 38° 301° (WNW) 02:00:57 437.575/2403.000
Oscar 19 01 Jul 01:56:26 02:00:01 19° 83° (E) 02:03:43 437.125/150
BEESAT 01 Jul 01:56:46 02:01:34 87° 65° (ENE) 02:06:25 436.000
YUBILEINY 01 Jul 01:59:48 02:03:32 14° 56° (NE) 02:07:39 435.215
QB50P2 01 Jul 02:02:36 02:06:45 53° 296° (WNW) 02:10:52 145.880/145.840
Cosmos 2499 01 Jul 02:02:57 02:07:30 17° 293° (WNW) 02:11:59 435.465 / 435.565
POPSAT HIP 1 01 Jul 02:04:24 02:08:32 52° 297° (WNW) 02:12:38 437.405
STARS 01 Jul 02:05:14 02:08:56 27° 51° (NE) 02:12:41 437.465
TIGRISAT 01 Jul 02:07:12 02:11:03 32° 304° (NW) 02:14:55 435.000
BUGSAT 1 01 Jul 02:07:27 02:11:35 64° 294° (WNW) 02:15:37 437.445
SWISSCUBE 01 Jul 02:11:47 02:16:35 73° 254° (WSW) 02:21:26 437.505
ITUPSAT 1 01 Jul 02:15:05 02:19:55 74° 254° (WSW) 02:24:47 437.325
AUBIESAT-1 01 Jul 02:24:06 02:25:29 12° 335° (NNW) 02:26:51 437.475
SPROUT 01 Jul 02:28:57 02:31:34 15° 278° (W) 02:34:07 437.525
MOZHAYETS 4 01 Jul 02:29:24 02:32:11 16° 39° (NE) 02:35:04
KKS-1 01 Jul 02:38:42 02:43:04 55° 63° (ENE) 02:47:27 437.445
SO-50 01 Jul 02:42:37 02:47:15 39° 226° (SW) 02:51:50 436.795
QB50P1 01 Jul 02:44:09 02:47:53 30° 305° (NW) 02:51:34 145.935-145.965
UNISAT 6 01 Jul 02:45:35 02:48:48 21° 313° (NW) 02:51:59 437.425
PCSat 01 Jul 02:46:17 02:50:54 28° 241° (WSW) 02:55:26 145.827
NANOSAT C BR1 01 Jul 03:00:08 03:03:37 25° 309° (NW) 03:07:02 145.865
Cosmos 2491 01 Jul 03:00:15 03:09:06 73° 69° (ENE) 03:17:51 435.465 / 435.565
POLYITAN 1 01 Jul 03:08:29 03:11:49 22° 311° (NW) 03:15:05 437.675
DUCHIFAT 1 01 Jul 03:08:35 03:11:55 23° 310° (NW) 03:15:12 145.980
Gurwin Techsat 1B 01 Jul 03:08:52 03:13:10 24° 87° (E) 03:17:31 435.225
RS-15 01 Jul 03:14:02 03:22:37 29° 106° (ESE) 03:31:44 29.354- 29.394
AIST 1 01 Jul 03:27:17 03:31:43 68° 71° (ENE) 03:36:05
ANTELSAT 01 Jul 03:30:41 03:32:45 13° 323° (NW) 03:34:45 437.575/2403.000
Oscar 19 01 Jul 03:35:11 03:40:21 72° 105° (ESE) 03:45:29 437.125/150
BEESAT 01 Jul 03:36:10 03:40:04 24° 272° (W) 03:43:54 436.000
ITAMSAT 1 01 Jul 03:37:58 03:42:42 34° 93° (E) 03:47:28 435.822/435.867
QB50P2 01 Jul 03:39:14 03:41:53 16° 318° (NW) 03:44:28 145.880/145.840
STARS 01 Jul 03:40:37 03:45:03 80° 252° (WSW) 03:49:30 437.465
POPSAT HIP 1 01 Jul 03:41:01 03:43:39 16° 318° (NW) 03:46:12 437.405
BUGSAT 1 01 Jul 03:43:34 03:46:26 18° 315° (NW) 03:49:11 437.445
STRAND 1 01 Jul 03:44:23 03:46:25 12° 21° (NNE) 03:48:30 437.568
TIGRISAT 01 Jul 03:45:14 03:46:45 12° 326° (NW) 03:48:13 435.000
YUBILEINY 01 Jul 03:50:10 03:57:56 40° 82° (E) 04:05:49 435.215
SWISSCUBE 01 Jul 03:51:58 03:55:20 18° 276° (W) 03:58:37 437.505
ITUPSAT 1 01 Jul 03:55:15 03:58:40 19° 276° (W) 04:02:01 437.325
MOZHAYETS 4 01 Jul 04:04:08 04:08:32 47° 61° (ENE) 04:12:59
KKS-1 01 Jul 04:15:50 04:19:57 34° 265° (W) 04:24:02 437.445
JAS-2 01 Jul 04:19:48 04:25:06 31° 90° (E) 04:31:03 435.910
QB50P1 01 Jul 04:21:27 04:22:38 11° 327° (NNW) 04:23:44 145.935-145.965
CUBESAT XI-V 01 Jul 04:21:37 04:24:47 18° 42° (NE) 04:28:03 437.345
SO-50 01 Jul 04:24:42 04:26:42 12° 247° (WSW) 04:28:31 436.795
PRISM 01 Jul 04:41:18 04:43:06 13° 35° (NE) 04:44:57 437.425
Gurwin Techsat 1B 01 Jul 04:48:33 04:53:55 87° 105° (ESE) 04:59:17 435.225
AO-7 01 Jul 04:50:41 04:58:02 33° 89° (E) 05:05:28 29.400- 29.500
Cosmos 2504 01 Jul 04:55:09 04:58:23 14° 63° (ENE) 05:01:55 435.465 / 435.565
HORYU 2 01 Jul 04:55:52 04:59:44 28° 92° (E) 05:03:38 437.375
Cosmos 2491 01 Jul 04:57:27 05:05:40 45° 274° (W) 05:13:44 435.465 / 435.565
AIST 1 01 Jul 05:05:21 05:09:03 26° 273° (W) 05:12:40
Oscar 19 01 Jul 05:14:51 05:19:28 35° 308° (NW) 05:24:04 437.125/150
ITAMSAT 1 01 Jul 05:17:24 05:22:38 69° 296° (WNW) 05:27:51 435.822/435.867
STARS 01 Jul 05:19:06 05:22:14 18° 274° (W) 05:25:17 437.465
STRAND 1 01 Jul 05:19:59 05:24:07 25° 44° (NE) 05:28:20 437.568
RS-15 01 Jul 05:22:14 05:33:00 65° 134° (SE) 05:44:19 29.354- 29.394
AUBIESAT-1 01 Jul 05:31:17 05:32:06 11° 22° (NNE) 05:32:59 437.475
MOZHAYETS 4 01 Jul 05:41:29 05:45:51 42° 263° (W) 05:50:17
YUBILEINY 01 Jul 05:45:28 05:54:13 82° 289° (WNW) 06:03:00 435.215
CUBESAT XI-V 01 Jul 05:56:49 06:01:27 55° 63° (ENE) 06:06:06 437.345
M-CUBED/EXP-1 PRIME 01 Jul 06:00:24 06:02:15 14° 31° (NNE) 06:04:13 437.505
JAS-2 01 Jul 06:04:53 06:10:52 85° 292° (WNW) 06:17:39 435.910
PRISM 01 Jul 06:13:43 06:17:33 36° 57° (ENE) 06:21:27 437.425
Cubesat XI-IV 01 Jul 06:18:38 06:21:13 14° 76° (ENE) 06:23:59 437.490
Gurwin Techsat 1B 01 Jul 06:28:52 06:33:30 31° 312° (NW) 06:38:06 435.225
HORYU 2 01 Jul 06:32:20 06:36:46 67° 294° (WNW) 06:41:12 437.375
Cosmos 2504 01 Jul 06:43:18 06:49:57 44° 88° (E) 06:56:45 435.465 / 435.565
AO-7 01 Jul 06:43:38 06:52:06 84° 114° (ESE) 07:00:31 29.400- 29.500
Oscar 19 01 Jul 06:54:48 06:57:38 15° 331° (NNW) 07:00:23 437.125/150
Cosmos 2491 01 Jul 06:55:20 07:00:20 16° 301° (WNW) 07:05:01 435.465 / 435.565
ITAMSAT 1 01 Jul 06:57:19 07:01:29 24° 318° (NW) 07:05:35 435.822/435.867
STRAND 1 01 Jul 06:57:35 07:02:44 75° 67° (ENE) 07:07:56 437.568
AUBIESAT-1 01 Jul 07:02:58 07:05:51 26° 44° (NE) 07:08:54 437.475
MOZHAYETS 4 01 Jul 07:23:57 07:24:27 10° 286° (WNW) 07:24:45
CUTE-I 01 Jul 07:24:33 07:29:21 32° 92° (E) 07:34:11 437.470
CUSAT 1 01 Jul 07:28:35 07:29:19 10° 81° (E) 07:30:14 437.405
M-CUBED/EXP-1 PRIME 01 Jul 07:33:08 07:36:21 42° 53° (NE) 07:39:45 437.505
RS-15 01 Jul 07:34:07 07:45:19 84° 345° (NNW) 07:57:05 29.354- 29.394
CUBESAT XI-V 01 Jul 07:34:42 07:39:06 37° 265° (W) 07:43:31 437.345
YUBILEINY 01 Jul 07:44:33 07:52:28 36° 316° (NW) 08:00:22 435.215
PRISM 01 Jul 07:48:48 07:52:54 52° 258° (WSW) 07:57:04 437.425
JAS-2 01 Jul 07:50:24 07:55:33 32° 313° (NW) 08:01:09 435.910
Cubesat XI-IV 01 Jul 07:57:29 08:02:45 49° 100° (E) 08:07:59 437.490
DANDE 01 Jul 08:03:08 08:07:01 17° 84° (E) 08:10:32 436.750
Gurwin Techsat 1B 01 Jul 08:09:22 08:12:08 14° 335° (NNW) 08:14:50 435.225
HORYU 2 01 Jul 08:09:31 08:12:47 20° 316° (NW) 08:16:02 437.375
ANTELSAT 01 Jul 08:15:51 08:17:36 12° 35° (NE) 08:19:27 437.575/2403.000
GOMX 1 01 Jul 08:24:19 08:25:52 12° 76° (ENE) 08:27:33 467.674
GONETS M04 01 Jul 08:28:09 08:34:17 22° 68° (ENE) 08:40:36
BRITE-PL 01 Jul 08:28:55 08:32:10 19° 82° (E) 08:35:22 437.365/2234.400
TIGRISAT 01 Jul 08:29:21 08:31:31 14° 38° (NE) 08:33:46 435.000
Cosmos 2504 01 Jul 08:36:05 08:43:12 64° 294° (WNW) 08:50:28 435.465 / 435.565
AO-7 01 Jul 08:36:37 08:44:31 47° 320° (NW) 08:52:21 29.400- 29.500
AUBIESAT-1 01 Jul 08:37:01 08:40:23 67° 245° (WSW) 08:43:57 437.475
ITAMSAT 1 01 Jul 08:37:21 08:39:27 12° 342° (NNW) 08:41:28 435.822/435.867
STRAND 1 01 Jul 08:37:54 08:42:27 30° 268° (W) 08:47:01 437.568
O/OREOS (USA 219) 01 Jul 08:52:23 08:55:36 20° 106° (ESE) 08:58:55 437.305
QB50P1 01 Jul 09:02:36 09:04:45 14° 39° (NE) 09:06:59 145.935-145.965
CUTE-I 01 Jul 09:04:32 09:09:56 73° 295° (WNW) 09:15:19 437.470
SEEDS 01 Jul 09:05:14 09:07:16 13° 80° (E) 09:09:28 437.485
CUSAT 1 01 Jul 09:05:37 09:11:11 41° 99° (E) 09:15:30 437.405
UNISAT 6 01 Jul 09:06:03 09:09:15 21° 48° (NE) 09:12:30 437.425
HO-68 01 Jul 09:06:25 09:12:04 25° 83° (E) 09:17:49 435.675
M-CUBED/EXP-1 PRIME 01 Jul 09:08:16 09:11:20 32° 255° (WSW) 09:14:34 437.505
NANOSAT C BR1 01 Jul 09:17:42 09:20:17 16° 42° (NE) 09:22:56 145.865
BEESAT 3 01 Jul 09:24:29 09:27:13 18° 123° (ESE) 09:30:01 437.485
DOVE 4 01 Jul 09:25:17 09:28:37 22° 87° (E) 09:31:55 437.250
AAUSAT CUBESAT 2 01 Jul 09:25:30 09:27:46 14° 81° (E) 09:30:09 437.432
DUCHIFAT 1 01 Jul 09:25:42 09:28:28 17° 44° (NE) 09:31:17 145.980
POLYITAN 1 01 Jul 09:25:55 09:28:45 18° 44° (NE) 09:31:38 437.675
PRISM 01 Jul 09:27:50 09:29:24 12° 281° (W) 09:30:50 437.425
BEESAT 2 01 Jul 09:31:32 09:34:13 17° 122° (ESE) 09:36:58 435.950
JAS-2 01 Jul 09:35:53 09:39:12 16° 337° (NNW) 09:42:39 435.910
Cubesat XI-IV 01 Jul 09:37:44 09:42:57 50° 302° (WNW) 09:48:08 437.490
DANDE 01 Jul 09:42:59 09:49:38 59° 102° (ESE) 09:54:39 436.750
CUTE 1.7 + AOD 2 01 Jul 09:45:45 09:49:28 28° 92° (E) 09:53:14 437.475
YUBILEINY 01 Jul 09:46:05 09:52:31 22° 347° (NNW) 09:58:54 435.215
RS-15 01 Jul 09:47:05 09:58:27 84° 16° (NNE) 10:10:25 29.354- 29.394
COMPASS 1 01 Jul 09:47:47 09:51:07 22° 88° (E) 09:54:30 437.405
CANX-2 01 Jul 09:48:29 09:52:20 32° 94° (E) 09:56:12 2200.000
Gurwin Techsat 1B 01 Jul 09:49:18 09:50:07 10° 360° (N) 09:50:57 435.225
ANTELSAT 01 Jul 09:49:30 09:53:24 36° 57° (ENE) 09:57:20 437.575/2403.000
QB50P2 01 Jul 09:55:20 09:58:48 25° 51° (NE) 10:02:18 145.880/145.840
POPSAT HIP 1 01 Jul 09:57:00 10:00:29 25° 51° (NE) 10:03:59 437.405
BUGSAT 1 01 Jul 09:58:29 10:01:38 21° 48° (NE) 10:04:47 437.445
GOMX 1 01 Jul 10:00:52 10:05:15 53° 100° (E) 10:09:24 467.674
TIGRISAT 01 Jul 10:03:21 10:07:23 42° 60° (ENE) 10:11:27 435.000
DELFI C3 01 Jul 10:06:34 10:08:23 13° 80° (E) 10:10:18 145.870
BRITE-PL 01 Jul 10:06:51 10:11:36 82° 107° (ESE) 10:15:58 437.365/2234.400
Oscar 19 01 Jul 10:10:33 10:12:25 12° 20° (NNE) 10:14:21 437.125/150
CUBEBUG 2 01 Jul 10:13:48 10:16:38 18° 85° (E) 10:19:33 437.445
AUBIESAT-1 01 Jul 10:14:35 10:16:00 12° 269° (W) 10:17:20 437.475
ITAMSAT 1 01 Jul 10:15:57 10:16:55 11° 7° (N) 10:17:55 435.822/435.867
GONETS M04 01 Jul 10:20:58 10:29:31 61° 93° (E) 10:38:05
AIST 2 01 Jul 10:26:03 10:28:50 17° 121° (ESE) 10:31:41 435.215
AO-7 01 Jul 10:28:50 10:35:45 30° 346° (NNW) 10:42:37 29.400- 29.500
O/OREOS (USA 219) 01 Jul 10:29:58 10:34:27 78° 128° (SE) 10:38:58 437.305
ZACube-1 01 Jul 10:31:59 10:34:46 18° 85° (E) 10:37:41 437.345
Cosmos 2504 01 Jul 10:32:18 10:38:15 26° 322° (NW) 10:44:13 435.465 / 435.565
QB50P1 01 Jul 10:35:43 10:39:45 42° 60° (ENE) 10:43:46 145.935-145.965
CINEMA 3 01 Jul 10:37:27 10:41:26 40° 97° (E) 10:45:23 145.822/145.860
SEEDS 01 Jul 10:39:48 10:44:01 59° 102° (ESE) 10:48:15 437.485
UNISAT 6 01 Jul 10:41:14 10:45:31 78° 70° (ENE) 10:49:49 437.425
CUTE-I 01 Jul 10:45:00 10:49:24 26° 317° (NW) 10:53:44 437.470
UKube-1 01 Jul 10:46:55 10:47:55 11° 78° (ENE) 10:49:04 .
CUSAT 1 01 Jul 10:48:05 10:53:49 52° 296° (WNW) 10:58:07 437.405
Oscar 11 01 Jul 10:48:26 10:52:21 32° 94° (E) 10:56:18 145.826/435.025
NANOSAT C BR1 01 Jul 10:51:14 10:55:22 52° 64° (ENE) 10:59:31 145.865
HO-68 01 Jul 10:53:57 11:01:09 72° 108° (ESE) 11:08:19 435.675
DUCHIFAT 1 01 Jul 10:59:25 11:03:36 59° 65° (ENE) 11:07:47 145.980
POLYITAN 1 01 Jul 10:59:48 11:04:00 61° 66° (ENE) 11:08:12 437.675
AAUSAT CUBESAT 2 01 Jul 11:00:03 11:04:15 65° 104° (ESE) 11:08:26 437.432
BEESAT 3 01 Jul 11:00:28 11:04:30 56° 144° (SE) 11:08:34 437.485
DOVE 4 01 Jul 11:02:39 11:07:00 79° 290° (WNW) 11:11:10 437.250
Cosmos 2499 01 Jul 11:06:53 11:12:47 31° 80° (E) 11:18:56 435.465 / 435.565
BEESAT 2 01 Jul 11:07:32 11:11:36 55° 143° (SE) 11:15:40 435.950
FUNcube-1 01 Jul 11:09:20 11:13:03 30° 94° (E) 11:16:49 145.935
UWE-3 01 Jul 11:12:02 11:15:57 38° 96° (E) 11:19:54 435.000/436.395/437.385
Cubesat XI-IV 01 Jul 11:18:16 11:22:07 20° 325° (NW) 11:25:52 437.490
JAS-2 01 Jul 11:19:59 11:22:12 12° 4° (N) 11:24:30 435.910
HUMSAT D 01 Jul 11:20:12 11:23:26 22° 89° (E) 11:26:43 437.325/437.525
CUTE 1.7 + AOD 2 01 Jul 11:21:29 11:25:43 63° 294° (WNW) 11:29:57 437.475
COMPASS 1 01 Jul 11:23:03 11:27:18 79° 290° (WNW) 11:31:32 437.405
CANX-2 01 Jul 11:24:19 11:28:31 56° 295° (WNW) 11:32:43 2200.000
Gurwin Techsat 1B 01 Jul 11:25:26 11:28:07 14° 25° (NNE) 11:30:52 435.225
ANTELSAT 01 Jul 11:25:55 11:30:07 52° 259° (WSW) 11:34:20 437.575/2403.000
DANDE 01 Jul 11:26:47 11:32:59 43° 300° (WNW) 11:37:42 436.750
QB50P2 01 Jul 11:30:03 11:34:19 83° 251° (WSW) 11:38:36 145.880/145.840
POPSAT HIP 1 01 Jul 11:31:43 11:36:00 83° 255° (WSW) 11:40:16 437.405
VELOX 1 01 Jul 11:32:04 11:34:54 17° 83° (E) 11:37:49 145.980
BUGSAT 1 01 Jul 11:32:21 11:36:35 77° 69° (ENE) 11:40:47 437.445
GOMX 1 01 Jul 11:39:13 11:43:19 35° 303° (WNW) 11:47:12 467.674
TIGRISAT 01 Jul 11:40:07 11:44:13 42° 262° (W) 11:48:18 435.000
DELFI C3 01 Jul 11:40:20 11:44:23 59° 102° (ESE) 11:48:26 145.870
BRITE-PL 01 Jul 11:45:45 11:49:44 27° 310° (NW) 11:53:26 437.365/2234.400
Oscar 19 01 Jul 11:46:12 11:50:17 25° 44° (NE) 11:54:25 437.125/150
YUBILEINY 01 Jul 11:46:34 11:53:12 23° 20° (NNE) 11:59:54 435.215
CUBEBUG 2 01 Jul 11:49:50 11:54:02 83° 107° (ESE) 11:58:14 437.445
ITAMSAT 1 01 Jul 11:51:24 11:54:35 17° 31° (NNE) 11:57:51 435.822/435.867
DX 1 01 Jul 11:54:42 11:58:40 33° 95° (E) 12:02:38 434.975-435.025
RS-15 01 Jul 11:59:35 12:10:51 66° 225° (SW) 12:22:35 29.354- 29.394
AIST 2 01 Jul 12:02:30 12:06:42 54° 142° (SE) 12:10:53 435.215
50 SAT 01 Jul 12:07:30 12:10:55 29° 94° (E) 12:14:22 437.505
ZACube-1 01 Jul 12:07:39 12:11:51 82° 107° (ESE) 12:16:05 437.345
O/OREOS (USA 219) 01 Jul 12:10:04 12:14:16 37° 331° (NNW) 12:18:29 437.305
QB50P1 01 Jul 12:11:34 12:15:38 43° 261° (W) 12:19:43 145.935-145.965
CINEMA 3 01 Jul 12:14:45 12:18:44 42° 299° (WNW) 12:22:39 145.822/145.860
SEEDS 01 Jul 12:15:50 12:19:38 32° 304° (WNW) 12:23:25 437.485
AISAT 01 Jul 12:17:25 12:21:29 33° 95° (E) 12:25:31 437.250
GONETS M04 01 Jul 12:18:01 12:26:39 57° 300° (WNW) 12:35:16
UNISAT 6 01 Jul 12:19:21 12:22:50 23° 271° (W) 12:26:15 437.425
AO-7 01 Jul 12:19:37 12:26:29 30° 14° (NNE) 12:33:24 29.400- 29.500
UKube-1 01 Jul 12:21:00 12:25:13 47° 100° (E) 12:29:25 .
Oscar 11 01 Jul 12:24:31 12:28:48 57° 295° (WNW) 12:33:04 145.826/435.025
CUTE-I 01 Jul 12:25:30 12:27:57 13° 341° (NNW) 12:30:21 437.470
SPROUT 01 Jul 12:27:21 12:29:05 12° 79° (E) 12:30:58 437.525
NANOSAT C BR1 01 Jul 12:27:31 12:31:25 34° 265° (W) 12:35:18 145.865
Cosmos 2504 01 Jul 12:30:23 12:34:45 16° 353° (N) 12:39:11 435.465 / 435.565
CUSAT 1 01 Jul 12:33:57 12:37:15 16° 316° (NW) 12:40:00 437.405
DUCHIFAT 1 01 Jul 12:35:55 12:39:42 30° 267° (W) 12:43:27 145.980
AAUSAT CUBESAT 2 01 Jul 12:35:56 12:39:37 30° 305° (NW) 12:43:17 437.432
POLYITAN 1 01 Jul 12:36:28 12:40:13 29° 267° (W) 12:43:56 437.675
ESTCUBE 1 01 Jul 12:36:34 12:40:46 35° 95° (E) 12:44:57 437.505/2401.250
BEESAT 3 01 Jul 12:38:21 12:42:29 69° 346° (NNW) 12:46:36 437.485
DOVE 4 01 Jul 12:40:58 12:44:14 21° 313° (NW) 12:47:23 437.250
HO-68 01 Jul 12:41:56 12:48:43 47° 312° (NW) 12:55:28 435.675
BEESAT 2 01 Jul 12:45:30 12:49:40 70° 345° (NNW) 12:53:49 435.950
FUNcube-1 01 Jul 12:45:33 12:49:39 56° 294° (WNW) 12:53:46 145.935
CUBEBUG 1 01 Jul 12:46:34 12:50:39 36° 95° (E) 12:54:43 437.445
UWE-3 01 Jul 12:48:37 12:52:37 45° 298° (WNW) 12:56:37 435.000/436.395/437.385
HUMSAT D 01 Jul 12:55:32 12:59:41 79° 289° (WNW) 13:03:50 437.325/437.525
HORYU 2 01 Jul 12:56:41 12:57:25 10° 27° (NNE) 12:58:14 437.375
CUTE 1.7 + AOD 2 01 Jul 12:58:03 13:00:59 18° 315° (NW) 13:03:52 437.475
Cosmos 2499 01 Jul 12:58:08 13:05:12 89° 285° (WNW) 13:12:32 435.465 / 435.565
Cubesat XI-IV 01 Jul 12:58:39 13:00:27 12° 349° (N) 13:02:13 437.490
COMPASS 1 01 Jul 12:59:15 13:02:28 21° 311° (NW) 13:05:38 437.405
CANX-2 01 Jul 13:00:57 13:03:44 17° 316° (NW) 13:06:26 2200.000
JAS-2 01 Jul 13:01:42 13:05:18 19° 30° (NNE) 13:09:09 435.910
Gurwin Techsat 1B 01 Jul 13:02:09 13:06:44 31° 48° (NE) 13:11:22 435.225
ANTELSAT 01 Jul 13:06:22 13:08:00 12° 281° (WNW) 13:09:28 437.575/2403.000
